This is the latest recevied weather packets stored in our database for station/object S54L-12. If no packets are shown the sender has not sent any weather packets the latest 10 day(s).
| Time | Temp. | Humidity | Pressure | Rain* | Wind** | Luminosity | Snow |
|---|---|---|---|---|---|---|---|
| 1777557488 | 10.56° C | 34% | 929.8 hPa | - | - | - | - |
| 1777556588 | 10.56° C | 32% | 929.7 hPa | - | - | - | - |
| 1777555688 | 11.67° C | 30% | 929.7 hPa | - | - | - | - |
| 1777554788 | 11.67° C | 30% | 929.8 hPa | - | - | - | - |
| 1777553888 | 11.67° C | 30% | 929.9 hPa | - | - | - | - |
| 1777552988 | 11.67° C | 30% | 930 hPa | - | - | - | - |
| 1777552088 | 11.11° C | 32% | 930.2 hPa | - | - | - | - |
| 1777551188 | 11.67° C | 32% | 930.4 hPa | - | - | - | - |
| 1777550287 | 11.11° C | 30% | 930.5 hPa | - | - | - | - |
| 1777549387 | 11.11° C | 31% | 930.6 hPa | - | - | - | - |
| 1777548487 | 11.11° C | 35% | 930.6 hPa | - | - | - | - |
| 1777547587 | 11.11° C | 31% | 930.7 hPa | - | - | - | - |
| 1777546687 | 10° C | 33% | 930.8 hPa | - | - | - | - |
| 1777545787 | 9.44° C | 35% | 930.8 hPa | - | - | - | - |
| 1777544887 | 10.56° C | 34% | 930.9 hPa | - | - | - | - |
| 1777543987 | 10.56° C | 35% | 930.8 hPa | - | - | - | - |
| 1777543087 | 9.44° C | 35% | 930.8 hPa | - | - | - | - |
| 1777542187 | 9.44° C | 34% | 931 hPa | - | - | - | - |
| 1777541287 | 8.89° C | 36% | 930.7 hPa | - | - | - | - |
| 1777540388 | 9.44° C | 31% | 930.8 hPa | - | - | - | - |
| 1777539488 | 12.22° C | 30% | 930.8 hPa | - | - | - | - |
| 1777538588 | 13.89° C | 29% | 930.8 hPa | - | - | - | - |
| 1777537693 | 14.44° C | 29% | 930.5 hPa | - | - | - | - |
| 1777536788 | 12.22° C | 29% | 930.5 hPa | - | - | - | - |
| 1777535888 | 12.22° C | 29% | 930.3 hPa | - | - | - | - |
* Rain since midnight (hover to see other rain measurements)
** Current wind speed in m/s (hover to see current wind gust speed)